sat.trackr.live / text

‹ back to catalog

ONEWEB-0552

NORAD 56054 · 2023-043J

PAYLOAD ACTIVE UNKNOWN

§ Identity

Operator
Country
UK
Launch date
2023-03-26
Launch site
SRILR
Launch vehicle
Mass (kg)
RCS (m²)

Purposes: comms

External: N2YO · Heavens-Above · Gunter

§ Orbital elements

Epoch: 2026-05-24T23:38:19.688640Z

Period
108.94 min
Inclination
87.9250°
Eccentricity
0.0001842
Mean motion
13.21825051 rev/d
Perigee alt
1,176.4 km
Apogee alt
1,179.1 km
Semi-major
7,555.9 km
B*
-8.9112e-5
RAAN
248.6008°
Arg perigee
95.8468°
Mean anomaly
264.2876°
Rev number
15,516

§ Raw data

ONEWEB-05521 56054U 23043J   26144.98495010 -.00000024  00000+0 -89112-4 0  99972 56054  87.9250 248.6008 0001842  95.8468 264.2876 13.21825051155167

JSON: /api/v1/satellites/56054 · /tle

For live sub-satellite position, see the globe view (requires WebGL).

§ Visibility from observer

Set your observer location to see the next 7 days of passes ≥ 10°. The values pass through the URL so the page stays shareable.

No JS? Fill the form by hand. The geolocation button needs JavaScript.